TimeEDT,TemperatureF,Dew PointF,Humidity,Sea Level PressureIn,VisibilityMPH,Wind Direction,Wind SpeedMPH,Gust SpeedMPH,PrecipitationIn,Events,Conditions,WindDirDegrees,DateUTC
12:53 AM,73.0,62.1,68,30.06,10.0,West,4.6,-,N/A,,Partly Cloudy,270,2014-03-23 04:53:00
1:53 AM,73.0,66.0,79,30.04,10.0,SW,3.5,-,N/A,,Scattered Clouds,230,2014-03-23 05:53:00
2:53 AM,73.0,66.0,79,30.03,10.0,West,4.6,-,N/A,,Mostly Cloudy,280,2014-03-23 06:53:00
3:53 AM,72.0,66.0,81,30.02,10.0,West,4.6,-,N/A,,Mostly Cloudy,260,2014-03-23 07:53:00
4:53 AM,72.0,66.0,81,30.01,10.0,Calm,Calm,-,N/A,,Mostly Cloudy,0,2014-03-23 08:53:00
5:53 AM,72.0,66.9,84,30.02,10.0,Calm,Calm,-,N/A,,Mostly Cloudy,0,2014-03-23 09:53:00
6:53 AM,72.0,68.0,87,30.04,10.0,Calm,Calm,-,N/A,,Mostly Cloudy,0,2014-03-23 10:53:00
7:53 AM,72.0,66.9,84,30.04,10.0,Calm,Calm,-,N/A,,Mostly Cloudy,0,2014-03-23 11:53:00
8:53 AM,75.0,68.0,79,30.06,10.0,Calm,Calm,-,N/A,,Mostly Cloudy,0,2014-03-23 12:53:00
9:53 AM,78.1,66.9,68,30.06,10.0,Variable,3.5,-,N/A,,Partly Cloudy,0,2014-03-23 13:53:00
10:53 AM,81.0,64.9,58,30.06,10.0,West,6.9,-,N/A,,Clear,260,2014-03-23 14:53:00
11:53 AM,84.0,64.9,53,30.05,10.0,WSW,9.2,-,N/A,,Clear,250,2014-03-23 15:53:00
12:53 PM,84.9,66.0,53,30.03,10.0,WSW,6.9,-,N/A,,Partly Cloudy,240,2014-03-23 16:53:00
1:53 PM,88.0,66.0,48,30.00,10.0,WSW,12.7,17.3,N/A,,Partly Cloudy,240,2014-03-23 17:53:00
2:53 PM,88.0,66.9,49,29.97,10.0,WSW,12.7,-,N/A,,Partly Cloudy,240,2014-03-23 18:53:00
3:53 PM,88.0,68.0,51,29.94,10.0,West,12.7,-,N/A,,Mostly Cloudy,260,2014-03-23 19:53:00
4:53 PM,89.1,66.9,48,29.94,10.0,WSW,12.7,-,N/A,,Mostly Cloudy,250,2014-03-23 20:53:00
5:53 PM,88.0,66.0,48,29.95,10.0,West,18.4,-,N/A,,Mostly Cloudy,260,2014-03-23 21:53:00
6:53 PM,86.0,64.9,49,29.96,10.0,WNW,13.8,-,N/A,,Mostly Cloudy,290,2014-03-23 22:53:00
7:53 PM,82.9,66.9,58,29.98,10.0,WNW,9.2,21.9,N/A,,Mostly Cloudy,290,2014-03-23 23:53:00
8:53 PM,81.0,68.0,65,29.99,10.0,West,10.4,-,N/A,,Scattered Clouds,280,2014-03-24 00:53:00
9:53 PM,79.0,69.1,72,30.01,10.0,West,9.2,-,N/A,,Scattered Clouds,270,2014-03-24 01:53:00
10:53 PM,78.1,69.1,74,30.02,10.0,West,10.4,-,N/A,,Scattered Clouds,280,2014-03-24 02:53:00
11:53 PM,75.9,70.0,82,30.02,10.0,West,9.2,-,N/A,,Scattered Clouds,270,2014-03-24 03:53:00